Location: Stockholm
(59.3333°N, 18.0500°E)
Time: 01:37:04
(UTC+02:00)

ISS - Pass Details

Date: 14 May 2021
Orbit: 417 x 422 km, 51.6° (Epoch: 16 June)

Event Time Altitude Azimuth Distance (km) Brightness Sun altitude
Exits shadow 01:18:11 18° 209° (SSW) 1,095 -2.2 -11.7°
Maximum altitude 01:19:23 22° 178° (S) 967 -2.5 -11.7°
Drops below altitude 10° 01:22:05 10° 125° (SE) 1,508 -1.2 -11.7°
Sets 01:24:28 0° 110° (ESE) 2,374 0.0 -11.6°
